Location: Czekanka
(50.4925°N, 19.2643°E)
Time: 06:56:20
(UTC+00:00)

SL-16 R/B - Pass Details

Date: 19 September 2024
Orbit: 842 x 846 km, 71.0° (Epoch: 05 October)

Event Time Altitude Azimuth Distance (km) Brightness Sun altitude
Rises 20:48:52 0° 262° (W) 3,403 5.6 -33.6°
Reaches altitude 10° 20:52:03 10° 280° (W) 2,470 5.0 -33.9°
Maximum altitude 20:56:03 19° 325° (NW) 1,897 4.7 -34.2°
Drops below altitude 10° 21:00:04 10° 11° (N) 2,475 5.1 -34.5°
Sets 21:03:16 0° 28° (NNE) 3,413 5.7 -34.8°
